TimeEST,TemperatureF,Dew PointF,Humidity,Sea Level PressureIn,VisibilityMPH,Wind Direction,Wind SpeedMPH,Gust SpeedMPH,PrecipitationIn,Events,Conditions,WindDirDegrees,DateUTC
12:15 AM,17.6,8.6,68,29.84,10.0,WNW,8.1,-,N/A,,Clear,290,2012-12-31 05:15:00
1:15 AM,15.8,10.4,79,29.85,10.0,WNW,3.5,-,N/A,,Clear,300,2012-12-31 06:15:00
1:35 AM,10.4,6.8,85,29.86,10.0,WSW,4.6,-,N/A,,Clear,250,2012-12-31 06:35:00
1:55 AM,17.6,15.8,93,29.86,10.0,WNW,8.1,-,N/A,,Clear,290,2012-12-31 06:55:00
2:15 AM,17.6,15.8,93,29.86,10.0,West,10.4,16.1,N/A,,Clear,280,2012-12-31 07:15:00
2:35 AM,19.4,12.2,74,29.86,10.0,West,16.1,-,N/A,,Clear,280,2012-12-31 07:35:00
2:55 AM,19.4,12.2,74,29.86,10.0,West,12.7,18.4,N/A,,Clear,280,2012-12-31 07:55:00
3:15 AM,19.4,8.6,63,29.87,10.0,West,11.5,-,N/A,,Clear,280,2012-12-31 08:15:00
3:35 AM,17.6,8.6,68,29.87,10.0,West,10.4,-,N/A,,Clear,260,2012-12-31 08:35:00
3:55 AM,17.6,10.4,73,29.87,10.0,West,11.5,-,N/A,,Clear,260,2012-12-31 08:55:00
4:15 AM,21.2,12.2,68,29.87,10.0,WNW,11.5,16.1,N/A,,Clear,290,2012-12-31 09:15:00
4:35 AM,21.2,17.6,86,29.88,10.0,West,10.4,-,N/A,,Clear,280,2012-12-31 09:35:00
5:15 AM,21.2,17.6,86,29.87,10.0,West,6.9,-,N/A,,Clear,270,2012-12-31 10:15:00
5:35 AM,21.2,17.6,86,29.87,10.0,WNW,5.8,-,N/A,,Clear,290,2012-12-31 10:35:00
5:55 AM,19.4,17.6,93,29.89,10.0,SW,3.5,-,N/A,,Clear,220,2012-12-31 10:55:00
6:15 AM,19.4,19.4,100,29.89,10.0,SSW,6.9,-,N/A,,Clear,200,2012-12-31 11:15:00
6:35 AM,19.4,15.8,86,29.89,10.0,West,6.9,-,N/A,,Clear,260,2012-12-31 11:35:00
6:55 AM,19.4,15.8,86,29.90,10.0,West,3.5,-,N/A,,Clear,260,2012-12-31 11:55:00
7:15 AM,19.4,12.2,74,29.90,10.0,West,9.2,-,N/A,,Clear,260,2012-12-31 12:15:00
7:35 AM,21.2,12.2,68,29.91,10.0,WSW,9.2,-,N/A,,Clear,240,2012-12-31 12:35:00
7:55 AM,21.2,12.2,68,29.91,10.0,WSW,8.1,-,N/A,,Clear,250,2012-12-31 12:55:00
8:15 AM,21.2,12.2,68,29.90,10.0,SW,8.1,-,N/A,,Clear,230,2012-12-31 13:15:00
8:35 AM,21.2,12.2,68,29.91,10.0,SSW,6.9,-,N/A,,Clear,210,2012-12-31 13:35:00
8:55 AM,21.2,15.8,80,29.91,10.0,South,4.6,-,N/A,,Clear,170,2012-12-31 13:55:00
9:15 AM,23.0,12.2,63,29.91,10.0,SW,5.8,-,N/A,,Clear,220,2012-12-31 14:15:00
9:35 AM,24.8,19.4,80,29.91,10.0,SW,8.1,-,N/A,,Clear,220,2012-12-31 14:35:00
9:55 AM,26.6,17.6,69,29.91,10.0,SW,15.0,19.6,N/A,,Clear,230,2012-12-31 14:55:00
10:15 AM,26.6,24.8,93,29.90,10.0,WSW,13.8,20.7,0.01,,Clear,250,2012-12-31 15:15:00
10:35 AM,28.4,19.4,69,29.89,10.0,WSW,13.8,-,0.01,,Clear,250,2012-12-31 15:35:00
10:55 AM,28.4,26.6,93,29.90,10.0,WSW,16.1,21.9,0.02,,Clear,250,2012-12-31 15:55:00
11:15 AM,30.2,21.2,69,29.89,10.0,West,11.5,19.6,N/A,,Clear,280,2012-12-31 16:15:00
11:35 AM,30.2,24.8,80,29.88,10.0,West,16.1,26.5,0.01,,Clear,260,2012-12-31 16:35:00
12:15 PM,32.0,21.2,64,29.87,5.0,West,11.5,35.7,N/A,,Partly Cloudy,270,2012-12-31 17:15:00
12:35 PM,32.0,30.2,93,29.86,9.0,WNW,11.5,26.5,N/A,,Scattered Clouds,290,2012-12-31 17:35:00
12:55 PM,30.2,24.8,80,29.85,10.0,WNW,15.0,25.3,N/A,,Scattered Clouds,290,2012-12-31 17:55:00
1:15 PM,32.0,19.4,60,29.84,10.0,West,10.4,19.6,N/A,,Clear,280,2012-12-31 18:15:00
1:35 PM,33.8,30.2,87,29.84,10.0,West,17.3,24.2,N/A,,Scattered Clouds,270,2012-12-31 18:35:00
1:55 PM,30.2,24.8,80,29.84,10.0,West,18.4,21.9,N/A,,Partly Cloudy,270,2012-12-31 18:55:00
2:15 PM,30.2,17.6,60,29.83,10.0,West,13.8,-,N/A,,Partly Cloudy,270,2012-12-31 19:15:00
2:35 PM,30.2,26.6,86,29.83,10.0,West,15.0,20.7,N/A,,Mostly Cloudy,280,2012-12-31 19:35:00
2:55 PM,32.0,30.2,93,29.83,10.0,West,13.8,17.3,N/A,,Mostly Cloudy,270,2012-12-31 19:55:00
3:15 PM,30.2,21.2,69,29.83,10.0,WSW,9.2,-,N/A,,Mostly Cloudy,240,2012-12-31 20:15:00
3:35 PM,32.0,19.4,60,29.83,10.0,WSW,11.5,-,N/A,,Overcast,250,2012-12-31 20:35:00
3:55 PM,30.2,30.2,100,29.84,10.0,WSW,11.5,19.6,N/A,,Overcast,250,2012-12-31 20:55:00
4:15 PM,30.2,26.6,86,29.83,10.0,WSW,11.5,-,N/A,,Overcast,250,2012-12-31 21:15:00
4:35 PM,30.2,17.6,60,29.82,10.0,WSW,9.2,-,N/A,,Overcast,250,2012-12-31 21:35:00
4:55 PM,30.2,26.6,86,29.82,10.0,SW,9.2,-,N/A,,Overcast,230,2012-12-31 21:55:00
5:15 PM,30.2,30.2,100,29.82,10.0,WSW,10.4,-,N/A,,Overcast,240,2012-12-31 22:15:00
5:35 PM,30.2,17.6,60,29.81,10.0,WSW,9.2,-,N/A,,Mostly Cloudy,240,2012-12-31 22:35:00
5:55 PM,30.2,21.2,69,29.80,10.0,SW,9.2,-,N/A,,Scattered Clouds,220,2012-12-31 22:55:00
6:15 PM,28.4,-9999,N/A,29.79,10.0,WSW,11.5,-,N/A,,Partly Cloudy,240,2012-12-31 23:15:00
6:35 PM,28.4,21.2,74,29.79,10.0,SW,9.2,-,N/A,,Clear,220,2012-12-31 23:35:00
7:15 PM,28.4,28.4,100,29.79,10.0,SW,10.4,-,N/A,,Mostly Cloudy,230,2013-01-01 00:15:00
7:35 PM,30.2,21.2,69,29.79,10.0,SW,6.9,-,N/A,,Overcast,220,2013-01-01 00:35:00
8:15 PM,30.2,30.2,100,29.78,10.0,SSW,4.6,-,N/A,,Overcast,200,2013-01-01 01:15:00
8:35 PM,28.4,17.6,64,29.78,10.0,Calm,Calm,-,N/A,,Scattered Clouds,0,2013-01-01 01:35:00
8:55 PM,28.4,28.4,100,29.76,10.0,South,4.6,-,N/A,,Mostly Cloudy,170,2013-01-01 01:55:00
9:15 PM,28.4,21.2,74,29.74,10.0,SSW,3.5,-,N/A,,Partly Cloudy,210,2013-01-01 02:15:00
9:35 PM,28.4,17.6,64,29.74,10.0,SSW,5.8,-,N/A,,Clear,210,2013-01-01 02:35:00
9:55 PM,28.4,28.4,100,29.74,10.0,SW,3.5,-,N/A,,Clear,220,2013-01-01 02:55:00
10:15 PM,28.4,19.4,69,29.74,10.0,SW,5.8,-,N/A,,Clear,220,2013-01-01 03:15:00
10:35 PM,28.4,21.2,74,29.73,10.0,South,3.5,-,N/A,,Clear,190,2013-01-01 03:35:00
11:15 PM,28.4,15.8,59,29.71,10.0,SSW,3.5,-,N/A,,Overcast,200,2013-01-01 04:15:00
11:35 PM,28.4,28.4,100,29.71,10.0,SW,5.8,-,N/A,,Overcast,220,2013-01-01 04:35:00
11:55 PM,28.4,26.6,93,29.70,10.0,SW,6.9,-,N/A,,Overcast,220,2013-01-01 04:55:00